When you browse on this site, cookies collect data to enhance your experience and personalize the content and advertising you see.
Visit our Privacy Policy to learn more. By continuing to use the site, you agree to this use of cookies and data.
  • In United Kingdom
  • List of Countries
  • For 7 days
  • Water Temperature
  • Weather Map
  • Weather Widgets
  • user-avatar
    Login

    Hourly Weather London

    Today, 11 December, Wednesday

    Time Temperature Precipitation Wind Pressure Humidity
    00:00 +7°C° 0 mm 4 mps 754 mmHg 77%
    01:00 +6°C° 0 mm 4 mps 754 mmHg 79%
    02:00 +6°C° 0 mm 4 mps 754 mmHg 81%
    03:00 +5°C° 0 mm 3 mps 754 mmHg 83%
    04:00 +5°C° 0 mm 3 mps 754 mmHg 84%
    05:00 +4°C° 0 mm 3 mps 754 mmHg 85%
    06:00 +4°C° 0 mm 3 mps 754 mmHg 85%
    07:00 +4°C° 0 mm 3 mps 753 mmHg 85%
    08:00 +4°C° 0 mm 3 mps 753 mmHg 84%
    09:00 +4°C° 0 mm 3 mps 752 mmHg 84%
    10:00 +5°C° 0 mm 3 mps 752 mmHg 80%
    11:00 +6°C° 0 mm 4 mps 751 mmHg 76%
    12:00 +7°C° 0 mm 4 mps 751 mmHg 72%
    13:00 +7°C° 0 mm 4 mps 750 mmHg 74%
    14:00 +7°C° 0 mm 4 mps 750 mmHg 75%
    15:00 +7°C° 0 mm 3 mps 749 mmHg 77%
    16:00 +6°C° 0.6 mm 4 mps 749 mmHg 79%
    17:00 +5°C° 0.6 mm 4 mps 749 mmHg 81%
    18:00 +4°C° 0.6 mm 4 mps 749 mmHg 82%
    19:00 +4°C° 0 mm 4 mps 749 mmHg 83%
    20:00 +3°C° 0 mm 4 mps 750 mmHg 83%
    21:00 +3°C° 0 mm 4 mps 750 mmHg 83%
    22:00 +3°C° 0 mm 4 mps 750 mmHg 82%
    23:00 +1°C° 0 mm 4 mps 750 mmHg 82%

    Tomorrow, 12 December, Thursday

    Time Temperature Precipitation Wind Pressure Humidity
    00:00 +1°C° 0 mm 4 mps 751 mmHg 82%
    01:00 +2°C° 0 mm 3 mps 750 mmHg 82%
    02:00 +2°C° 0 mm 3 mps 750 mmHg 83%
    03:00 +1°C° 0 mm 3 mps 750 mmHg 83%
    04:00 +1°C° 0 mm 3 mps 750 mmHg 83%
    05:00 +1°C° 0 mm 3 mps 749 mmHg 83%
    06:00 +1°C° 0 mm 3 mps 749 mmHg 83%
    07:00 +2°C° 0 mm 3 mps 748 mmHg 82%
    08:00 +2°C° 0 mm 3 mps 747 mmHg 80%
    09:00 +3°C° 0 mm 4 mps 746 mmHg 78%
    10:00 +3°C° 0 mm 5 mps 744 mmHg 80%
    11:00 +4°C° 0 mm 7 mps 743 mmHg 81%
    12:00 +5°C° 0 mm 8 mps 741 mmHg 83%
    13:00 +5°C° 1.2 mm 8 mps 739 mmHg 85%
    14:00 +6°C° 1.2 mm 9 mps 737 mmHg 87%
    15:00 +6°C° 1.2 mm 9 mps 735 mmHg 89%
    16:00 +6°C° 2.8 mm 7 mps 734 mmHg 91%
    17:00 +7°C° 2.8 mm 5 mps 733 mmHg 93%
    18:00 +7°C° 2.8 mm 3 mps 732 mmHg 95%
    19:00 +7°C° 0.2 mm 3 mps 731 mmHg 93%
    20:00 +6°C° 0.2 mm 4 mps 731 mmHg 91%
    21:00 +5°C° 0.2 mm 5 mps 730 mmHg 89%
    22:00 +5°C° 0.6 mm 5 mps 730 mmHg 90%
    23:00 +5°C° 0.6 mm 4 mps 729 mmHg 91%

    Day after tomorrow, 13 December, Friday

    Time Temperature Precipitation Wind Pressure Humidity
    00:00 +5°C° 0.6 mm 4 mps 729 mmHg 92%
    01:00 +5°C° 0.5 mm 5 mps 729 mmHg 88%
    02:00 +3°C° 0.5 mm 6 mps 728 mmHg 84%
    03:00 +3°C° 0.5 mm 6 mps 728 mmHg 80%
    04:00 +2°C° 0.2 mm 8 mps 729 mmHg 81%
    05:00 +2°C° 0.2 mm 9 mps 729 mmHg 82%
    06:00 +2°C° 0.2 mm 10 mps 729 mmHg 82%
    07:00 +2°C° 0.2 mm 9 mps 730 mmHg 80%
    08:00 +3°C° 0.2 mm 9 mps 731 mmHg 78%
    09:00 +4°C° 0.2 mm 8 mps 732 mmHg 76%
    10:00 +4°C° 0 mm 8 mps 733 mmHg 75%
    11:00 +5°C° 0 mm 7 mps 734 mmHg 75%
    12:00 +5°C° 0 mm 7 mps 735 mmHg 74%
    13:00 +5°C° 0 mm 7 mps 736 mmHg 74%
    14:00 +6°C° 0 mm 7 mps 736 mmHg 75%
    15:00 +6°C° 0 mm 7 mps 737 mmHg 75%
    16:00 +5°C° 0 mm 7 mps 738 mmHg 75%
    17:00 +5°C° 0 mm 6 mps 739 mmHg 75%
    18:00 +4°C° 0 mm 6 mps 740 mmHg 75%
    19:00 +5°C° 0 mm 5 mps 740 mmHg 76%
    20:00 +5°C° 0 mm 5 mps 740 mmHg 77%
    21:00 +5°C° 0 mm 5 mps 740 mmHg 78%
    22:00 +4°C° 0.6 mm 6 mps 739 mmHg 82%
    23:00 +5°C° 0.6 mm 6 mps 738 mmHg 86%

    14 December, Saturday

    Time Temperature Precipitation Wind Pressure Humidity
    00:00 +5°C° 0.6 mm 7 mps 737 mmHg 90%
    01:00 +5°C° 0.1 mm 8 mps 736 mmHg 82%
    02:00 +5°C° 0.1 mm 9 mps 736 mmHg 75%
    03:00 +5°C° 0.1 mm 10 mps 736 mmHg 68%
    04:00 +5°C° 0 mm 10 mps 737 mmHg 67%
    05:00 +3°C° 0 mm 11 mps 738 mmHg 66%
    06:00 +3°C° 0 mm 11 mps 739 mmHg 65%
    07:00 +2°C° 0 mm 10 mps 740 mmHg 64%
    08:00 +2°C° 0 mm 9 mps 740 mmHg 64%
    09:00 +2°C° 0 mm 8 mps 741 mmHg 63%
    10:00 +2°C° 0 mm 8 mps 742 mmHg 62%
    11:00 +4°C° 0 mm 7 mps 742 mmHg 62%
    12:00 +5°C° 0 mm 7 mps 742 mmHg 62%
    13:00 +4°C° 0.1 mm 6 mps 743 mmHg 67%
    14:00 +4°C° 0.1 mm 6 mps 743 mmHg 72%
    15:00 +3°C° 0.1 mm 6 mps 743 mmHg 78%
    16:00 +3°C° 0.3 mm 5 mps 744 mmHg 76%
    17:00 +3°C° 0.3 mm 5 mps 744 mmHg 74%
    18:00 +2°C° 0.3 mm 5 mps 745 mmHg 71%
    19:00 +3°C° 0 mm 4 mps 745 mmHg 74%
    20:00 +1°C° 0 mm 4 mps 746 mmHg 76%
    21:00 +2°C° 0 mm 3 mps 746 mmHg 79%
    22:00 +2°C° 0 mm 3 mps 745 mmHg 76%
    23:00 +2°C° 0 mm 3 mps 744 mmHg 73%

    15 December, Sunday

    Time Temperature Precipitation Wind Pressure Humidity
    00:00 +2°C° 0 mm 3 mps 744 mmHg 71%
    01:00 +2°C° 1.6 mm 5 mps 742 mmHg 72%
    02:00 +3°C° 1.6 mm 7 mps 741 mmHg 73%
    03:00 +3°C° 1.6 mm 9 mps 739 mmHg 74%
    04:00 +2°C° 0 mm 9 mps 739 mmHg 72%
    05:00 +2°C° 0 mm 8 mps 739 mmHg 71%
    06:00 +2°C° 0 mm 8 mps 738 mmHg 69%
    07:00 +1°C° 0 mm 9 mps 740 mmHg 69%
    08:00 +1°C° 0 mm 10 mps 742 mmHg 70%
    09:00 -1°C° 0 mm 11 mps 744 mmHg 71%
    10:00 +1°C° 0 mm 9 mps 746 mmHg 69%
    11:00 +2°C° 0 mm 8 mps 748 mmHg 68%
    12:00 +4°C° 0 mm 6 mps 750 mmHg 66%
    13:00 +4°C° 0 mm 6 mps 750 mmHg 66%
    14:00 +5°C° 0 mm 5 mps 750 mmHg 66%
    15:00 +5°C° 0 mm 4 mps 750 mmHg 66%
    16:00 +5°C° 0.2 mm 5 mps 750 mmHg 71%
    17:00 +4°C° 0.2 mm 7 mps 750 mmHg 77%
    18:00 +4°C° 0.2 mm 8 mps 750 mmHg 82%
    19:00 +4°C° 0.4 mm 7 mps 750 mmHg 82%
    20:00 +4°C° 0.4 mm 6 mps 750 mmHg 82%
    21:00 +5°C° 0.4 mm 5 mps 750 mmHg 82%
    22:00 +4°C° 0.1 mm 4 mps 750 mmHg 82%
    23:00 +4°C° 0.1 mm 4 mps 750 mmHg 82%

    16 December, Monday

    Time Temperature Precipitation Wind Pressure Humidity
    00:00 +4°C° 0.1 mm 4 mps 750 mmHg 81%
    01:00 +4°C° 0 mm 3 mps 750 mmHg 82%
    02:00 +4°C° 0 mm 3 mps 750 mmHg 83%
    03:00 +4°C° 0 mm 3 mps 750 mmHg 83%
    04:00 +4°C° 0 mm 3 mps 750 mmHg 84%
    05:00 +4°C° 0 mm 3 mps 750 mmHg 85%
    06:00 +4°C° 0 mm 3 mps 750 mmHg 85%
    07:00 +4°C° 0.1 mm 3 mps 750 mmHg 86%
    08:00 +5°C° 0.1 mm 3 mps 750 mmHg 87%
    09:00 +5°C° 0.1 mm 3 mps 750 mmHg 88%
    10:00 +5°C° 0.2 mm 3 mps 749 mmHg 86%
    11:00 +6°C° 0.2 mm 4 mps 749 mmHg 84%
    12:00 +7°C° 0.2 mm 4 mps 749 mmHg 82%
    13:00 +7°C° 0.8 mm 4 mps 748 mmHg 85%
    14:00 +7°C° 0.8 mm 3 mps 748 mmHg 87%
    15:00 +7°C° 0.8 mm 3 mps 748 mmHg 90%
    16:00 +7°C° 0.1 mm 3 mps 748 mmHg 90%
    17:00 +6°C° 0.1 mm 2 mps 748 mmHg 89%
    18:00 +6°C° 0.1 mm 2 mps 748 mmHg 89%
    19:00 +6°C° 0 mm 2 mps 748 mmHg 89%
    20:00 +7°C° 0 mm 1 mps 748 mmHg 88%
    21:00 +6°C° 0 mm 1 mps 748 mmHg 87%
    22:00 +6°C° 0 mm 1 mps 748 mmHg 88%
    23:00 +6°C° 0 mm 1 mps 748 mmHg 88%
    Show more